Back to catalog

TITAN 4B CENTAUR R/B

AliveGEO
NORAD 25337·ROCKET BODY·🇺🇸 United States

Launched May 9, 1998 from Cape Canaveral Space Force Station

Loading…

TLE

FreshSource: Space-Track

Epoch: Sep 13, 2026, 14:03 UTC

1 25337U 98029B   26256.58554254 -.00000310  00000-0  00000-0 0  9992
2 25337   7.5698 342.2869 0046925 180.4621 179.5299  1.00272951 26736

Track TITAN 4B CENTAUR R/B in real time with AllMySat

Download on the App Store